Probability
33 38 43 42 37 38 41 41 39 37 36 32 28 25 22 18 14 9 5 3 2 1 0 1 1 2 3 4 4 4 3 3 2 1 0 0 0 0 0 0 0 0 0
33 37 38 33 31 32 34 35 35 34 33 30 26 24 22 18 14 10 6 3 2 1 1 1 1 2 3 4 5 5 3 2 3 2 1 0 0 0 0 0 0 0 0
29 29 25 19 20 23 25 27 29 30 29 24 22 21 20 17 15 12 7 4 3 1 1 1 1 1 3 4 5 5 4 3 2 2 1 0 0 0 0 0 0 0 0
21 19 14 11 13 17 20 24 26 27 24 19 17 18 16 14 13 11 9 6 3 1 1 1 1 1 2 3 3 3 3 3 1 1 0 0 0 0 0 0 0 0 0
15 14 11 9 11 14 18 23 25 22 18 15 15 15 14 12 11 10 9 6 3 1 1 2 2 1 1 1 1 1 2 2 1 0 0 0 0 0 0 0 0 0 0
15 14 11 9 10 13 15 20 22 19 15 14 13 13 12 12 10 9 7 4 3 2 2 2 2 1 0 0 0 0 1 1 0 0 0 0 0 0 0 0 0 0 0
15 14 13 12 12 13 14 18 20 18 14 11 9 9 11 11 9 7 4 2 1 2 2 2 2 1 0 0 0 0 0 0 0 0 0 0 0 0 0 0 0 0 0
15 15 14 14 14 13 13 14 15 15 12 9 7 9 11 9 6 4 2 1 1 2 3 2 1 0 0 0 0 0 0 0 0 0 0 0 0 0 0 0 0 0 0
13 14 14 13 12 12 11 10 11 11 9 7 7 9 10 8 5 3 1 1 2 4 3 2 1 0 1 1 1 0 0 0 0 0 0 0 0 0 0 0 0 0 0
11 12 12 10 9 9 8 8 9 9 7 5 5 6 7 7 5 3 2 3 5 6 4 2 1 2 2 2 1 0 0 0 0 0 0 0 0 0 0 0 0 0 0
9 10 10 8 8 9 9 9 8 7 5 4 5 6 7 8 7 5 5 7 8 6 4 2 2 3 3 3 2 0 0 1 1 1 1 1 0 0 0 0 0 0 0
9 10 11 11 12 12 12 11 10 7 6 6 8 10 11 12 12 10 10 10 9 6 3 3 3 3 3 3 3 2 1 1 2 3 2 2 2 2 1 0 0 0 0
11 15 20 22 21 18 16 15 13 12 12 13 16 20 22 21 18 15 14 14 10 6 4 4 4 4 5 5 5 5 4 3 4 3 3 3 3 3 2 1 1 0 0
16 24 35 38 34 30 27 24 21 19 23 28 32 35 37 34 27 21 18 16 13 10 7 7 7 8 8 7 6 6 5 5 5 4 4 3 3 3 3 2 2 1 0
20 32 46 52 50 46 42 38 35 34 39 46 48 50 50 47 39 28 22 19 16 12 10 10 12 12 9 5 4 4 4 4 5 4 4 3 2 2 2 2 1 1 0
25 37 51 59 61 57 53 52 51 52 56 58 58 60 59 55 45 33 27 26 23 21 19 18 18 16 9 3 1 2 3 4 3 3 3 2 1 1 1 0 0 0 0
35 44 55 61 64 62 61 61 61 63 67 67 66 66 65 61 52 41 38 39 39 37 34 29 24 20 13 4 0 0 2 2 3 4 5 3 1 0 0 0 0 0 0
44 52 61 65 66 66 66 65 65 69 73 74 73 73 73 70 64 57 53 54 54 52 48 41 34 28 19 7 1 0 0 1 1 3 5 5 3 1 1 0 0 0 0
49 55 62 66 69 70 69 67 67 71 75 77 79 79 79 77 74 70 66 64 62 60 55 48 44 40 27 11 2 0 1 2 2 3 4 4 3 1 0 0 1 1 1
50 55 61 64 68 70 70 69 68 70 74 78 79 79 78 77 77 75 73 69 66 63 58 52 50 48 36 16 3 0 2 5 6 6 4 3 1 0 0 1 2 2 2
50 55 60 64 67 69 71 70 70 71 74 75 74 73 72 71 72 75 75 72 67 62 58 55 53 50 39 20 5 1 2 5 7 6 4 2 0 0 0 1 2 2 2
50 53 58 62 65 69 73 73 74 75 75 73 70 67 64 61 62 67 71 69 64 58 55 53 49 45 37 19 5 1 1 2 3 3 2 1 0 0 0 0 1 1 1
46 46 50 56 61 66 70 72 72 72 71 69 67 63 59 55 55 58 61 62 58 51 46 42 37 34 29 18 7 2 1 0 1 1 1 0 0 0 0 0 0 0 0
41 41 44 49 54 56 57 58 60 60 60 60 59 56 52 50 50 51 52 51 48 41 33 29 26 24 22 16 9 5 3 1 0 0 0 0 0 0 1 1 0 0 0
34 36 40 44 46 45 42 42 46 49 48 48 47 43 40 39 41 42 39 33 29 25 19 16 16 17 14 9 6 6 4 2 0 0 0 0 0 2 3 3 2 3 3
28 31 36 40 41 38 35 35 40 44 43 42 40 35 32 32 34 35 28 19 13 11 7 6 8 9 7 3 2 3 3 1 0 1 1 1 1 3 5 5 5 5 6
Wind_Speed
8 9 9 10 9 9 10 9 9 9 7 5 5 5 4 4 4 4 5 5 4 3 2 4 2 1 3 2 2 1 1 1 0 2 2 2 3 3 2 1 1 1 0
10 10 10 10 9 9 9 9 8 8 7 5 4 4 4 4 4 4 5 5 4 4 4 4 2 2 2 2 2 1 1 2 1 1 2 1 1 1 2 2 2 1 1
13 12 11 10 11 11 10 10 9 9 8 7 5 4 4 4 4 5 4 4 4 3 2 3 2 2 2 3 1 0 1 2 2 1 2 2 2 1 1 1 2 2 1
13 12 12 11 11 11 11 9 9 9 8 7 7 7 6 5 6 5 4 4 4 4 3 3 3 1 1 2 1 2 1 1 1 0 1 1 1 1 1 1 1 2 2
14 13 13 12 12 12 12 11 10 9 8 6 7 6 5 5 5 6 6 5 4 3 3 4 3 2 1 3 2 2 1 1 2 2 1 1 1 2 1 1 1 1 1
14 13 13 12 11 12 12 12 11 9 7 6 6 5 4 6 7 7 6 5 4 4 4 4 3 2 2 3 3 1 1 1 2 3 3 2 1 1 1 2 2 1 1
14 14 14 14 13 13 12 12 12 10 8 7 6 5 5 6 7 6 6 4 5 4 4 5 3 3 3 3 2 1 1 1 1 1 2 3 3 2 2 2 2 3 2
15 14 15 14 14 14 13 13 12 11 10 8 7 6 6 4 5 5 4 4 3 5 6 5 4 3 3 3 3 1 2 2 1 1 1 2 2 2 2 1 2 3 3
16 16 16 15 15 14 14 14 13 11 10 9 7 6 6 5 5 5 4 3 3 6 7 6 5 4 3 2 3 2 1 2 2 2 2 2 2 1 1 2 2 2 3
16 16 15 15 14 14 13 14 13 12 10 9 8 8 7 5 5 5 4 4 4 5 6 5 5 4 4 3 3 2 3 3 2 2 1 1 2 1 2 2 2 2 2
16 15 15 15 14 14 14 13 13 12 10 10 8 8 8 7 6 5 5 4 4 5 5 5 5 5 4 4 3 3 3 3 3 3 3 3 3 2 2 2 2 2 2
14 15 15 15 14 14 14 13 13 13 12 10 9 8 8 8 7 7 6 6 5 5 5 6 5 6 6 5 5 5 4 4 4 4 3 3 4 3 3 3 3 3 3
13 14 14 14 13 14 13 13 13 13 13 12 11 9 9 8 8 8 7 7 7 6 6 6 6 5 5 5 5 5 4 4 4 4 4 4 4 4 3 3 3 3 4
12 12 12 12 12 12 12 13 12 13 12 12 11 10 10 9 8 8 8 7 7 7 6 6 6 6 5 5 6 5 5 4 4 4 4 5 5 5 4 4 5 4 4
13 11 11 11 11 12 11 12 12 11 11 11 11 11 10 9 8 8 8 8 7 8 7 6 6 6 6 7 7 6 7 6 5 5 5 6 7 6 5 5 3 3 3
13 12 12 11 11 12 12 11 11 11 10 11 11 10 10 10 9 8 8 8 8 7 7 7 7 8 8 7 8 6 4 4 5 6 6 6 7 9 11 11 9 7 6
9 11 12 11 10 10 10 10 10 10 11 10 10 10 11 10 10 11 9 9 8 8 7 7 7 7 6 8 9 8 5 5 5 5 5 7 8 7 8 11 14 13 14
5 7 9 11 11 10 10 9 10 10 10 10 10 10 10 10 10 9 9 9 7 7 7 7 7 7 8 12 12 11 7 6 7 7 7 7 7 8 6 6 7 8 10
2 4 5 8 9 9 9 9 9 9 10 10 9 9 10 9 9 9 8 8 7 7 7 7 8 8 8 13 14 12 6 7 8 9 9 9 8 10 11 8 7 7 7
4 4 5 5 6 7 7 8 7 7 7 7 7 7 8 9 9 9 8 7 6 6 7 7 7 8 8 12 15 14 7 7 7 8 9 13 13 12 12 9 8 9 8
6 6 7 6 5 6 7 7 6 5 5 5 5 4 5 5 6 6 5 5 6 6 7 7 7 7 8 10 15 15 8 7 7 7 6 6 10 13 13 12 9 11 9
7 7 7 7 5 5 6 5 4 4 4 4 5 5 5 5 5 5 5 5 6 7 7 6 6 6 6 8 12 16 15 11 7 7 6 4 4 7 10 10 12 14 10
8 7 7 8 7 6 5 5 3 3 3 3 3 3 4 4 3 4 4 4 4 5 5 5 5 5 4 5 10 14 17 16 10 8 9 9 9 8 8 13 15 12 8
8 7 8 8 8 7 7 6 4 3 3 2 2 2 2 3 3 3 4 4 4 4 4 3 4 3 3 3 3 5 7 10 10 9 10 11 13 13 13 12 10 9 10
8 8 8 9 9 8 8 7 6 5 4 3 2 1 2 2 2 3 3 3 3 3 4 3 3 3 3 1 2 3 3 4 4 4 6 8 8 7 8 8 9 9 9
8 8 9 9 8 8 8 7 5 5 4 2 2 1 0 0 1 2 2 4 4 4 5 4 4 3 3 2 3 4 5 6 4 4 7 8 8 9 8 8 7 7 8
Wind_Direction
146 141 141 139 139 137 137 138 141 146 149 149 158 159 154 145 134 135 137 145 139 126 123 115 139 116 100 99 101 63 281 256 295 307 288 239 200 169 163 189 359 53 72
147 147 149 146 145 143 143 148 150 153 156 156 157 155 149 147 135 124 136 145 140 150 151 135 144 108 113 117 89 59 327 323 32 332 314 294 131 276 167 161 176 96 31
155 157 160 159 155 155 160 158 160 158 161 160 156 146 138 136 127 131 147 145 141 140 110 125 124 130 156 136 144 143 20 351 331 24 6 348 23 339 116 130 99 99 58
154 159 168 168 165 164 161 155 156 154 160 169 162 159 160 159 152 152 145 146 143 143 137 129 124 124 106 121 153 96 357 325 317 29 104 90 62 338 350 306 111 172 191
158 166 169 169 166 164 157 153 151 153 162 175 161 167 165 155 145 137 140 149 147 155 146 131 126 137 111 103 79 76 12 354 1 351 352 68 183 227 249 310 328 269 198
160 165 165 163 162 161 156 154 152 153 162 171 162 180 167 142 137 142 150 164 155 167 155 141 134 142 117 117 114 117 109 58 30 355 344 351 335 330 337 324 310 304 284
163 165 163 162 163 163 159 157 158 159 165 171 168 174 159 140 143 158 166 180 166 159 147 137 140 137 129 137 134 160 106 91 51 318 330 354 342 352 356 339 329 333 303
164 167 167 166 168 167 163 159 159 163 169 172 170 165 160 164 167 179 168 186 166 142 142 138 154 153 161 158 132 198 176 148 182 274 25 318 308 340 339 331 330 316 308
166 169 171 171 172 169 166 166 164 167 172 171 165 165 175 187 162 156 177 165 131 140 146 152 161 165 167 155 151 225 171 141 205 258 210 242 292 287 310 316 311 312 313
169 170 172 174 172 170 169 169 168 170 172 170 174 175 177 171 153 167 182 146 139 125 148 160 167 169 169 178 192 227 188 174 210 228 232 271 290 326 306 287 287 284 285
171 170 171 173 172 171 172 171 171 172 175 177 184 173 171 171 169 176 166 152 147 146 162 172 177 179 183 188 194 239 203 193 225 246 227 225 262 283 305 297 291 282 284
170 170 171 171 173 174 173 174 175 176 179 180 180 177 172 173 178 181 172 168 167 172 180 185 189 196 193 192 197 226 225 207 216 228 233 235 246 226 254 278 283 279 269
169 170 169 171 173 176 175 176 179 181 181 181 182 179 179 180 185 180 175 178 180 188 191 189 196 209 202 194 204 220 233 227 229 229 229 234 244 243 245 258 272 283 287
167 170 165 168 173 175 175 177 181 182 181 179 183 182 184 184 187 182 177 182 186 192 194 193 200 208 211 206 205 213 224 232 238 236 234 237 239 237 236 249 250 259 274
171 169 166 169 172 175 176 179 182 182 181 179 184 183 184 183 185 186 182 185 192 198 195 197 204 209 215 216 207 209 218 219 232 239 235 235 234 233 229 249 261 279 277
175 173 170 171 175 179 180 182 180 180 177 181 185 180 183 185 188 189 188 188 195 204 197 201 207 212 222 205 196 199 232 228 231 237 239 243 231 221 222 231 237 236 245
175 175 175 177 178 178 177 180 182 179 180 183 185 181 185 189 191 195 193 194 196 202 205 205 209 215 210 193 186 194 215 245 253 251 245 252 250 223 219 225 233 240 242
180 170 174 174 177 179 175 177 182 181 183 184 188 185 186 191 189 194 193 193 195 200 207 212 216 218 212 195 194 196 213 237 248 252 251 247 251 255 242 240 235 230 233
143 145 153 168 167 171 171 172 181 184 188 190 191 188 187 192 190 195 196 192 193 199 206 213 219 222 218 198 198 194 213 230 239 244 246 243 240 238 232 234 244 251 253
98 109 123 122 138 152 150 156 169 172 180 185 183 187 183 190 193 194 194 193 195 202 209 217 220 223 222 201 201 199 220 235 241 241 240 240 239 239 225 226 235 244 247
83 91 98 99 110 127 132 142 153 165 169 164 153 161 168 180 189 187 188 192 201 210 216 222 219 220 224 208 202 202 218 236 246 250 249 244 234 232 230 228 235 242 248
68 81 89 91 89 102 118 129 139 144 146 149 151 155 158 181 187 181 190 196 206 213 218 225 232 229 225 217 205 207 216 231 246 258 268 275 265 243 244 241 247 252 256
63 70 82 84 79 80 90 99 97 108 116 125 143 153 159 171 174 176 188 199 208 223 229 229 235 239 235 217 206 208 219 229 238 256 265 278 278 270 254 244 244 248 248
57 64 72 76 68 67 71 67 60 70 103 119 123 130 155 175 184 188 199 210 214 220 232 239 243 246 248 239 200 206 222 231 239 254 268 271 263 257 255 257 245 233 236
57 60 66 71 71 64 59 56 49 49 57 70 90 145 184 195 194 197 207 213 211 203 218 244 256 258 256 226 186 205 225 233 237 255 260 261 260 255 250 244 241 238 233
62 62 62 64 68 67 62 53 48 49 50 53 39 7 303 171 230 223 226 223 229 219 226 237 251 271 255 243 243 233 231 234 229 234 255 259 260 262 264 264 259 249 245